| time (UTC) | temp F | wind direction | speed MPH | gust MPH | rain 1hr in | rain 24hr in | rain mn in | humidity % | barometer mb |
| 20260507175049 | 63 | 304 | 0.0 | 3.0 | 0.00 | 0.00 | 0.00 | 57 | 1014.8 |
| 20260507174534 | 63 | 284 | 0.0 | 3.0 | 0.00 | 0.00 | 0.00 | 56 | 1014.9 |
| 20260507174104 | 63 | 260 | 1.0 | 4.0 | 0.00 | 0.00 | 0.00 | 56 | 1014.8 |
| 20260507173542 | 63 | 196 | 1.0 | 4.0 | 0.00 | 0.00 | 0.00 | 60 | 1014.9 |
| 20260507173044 | 63 | 161 | 0.0 | 3.0 | 0.00 | 0.00 | 0.00 | 58 | 1014.9 |
| 20260507172557 | 63 | 47 | 0.0 | 3.0 | 0.00 | 0.00 | 0.00 | 55 | 1015.1 |
| 20260507172033 | 63 | 224 | 0.0 | 3.0 | 0.00 | 0.00 | 0.00 | 57 | 1015.2 |
| 20260507171518 | 62 | 303 | 0.0 | 3.0 | 0.00 | 0.00 | 0.00 | 56 | 1015.2 |
| 20260507171051 | 62 | 257 | 1.0 | 4.0 | 0.00 | 0.00 | 0.00 | 54 | 1015.3 |
| 20260507170526 | 63 | 274 | 1.0 | 4.0 | 0.00 | 0.00 | 0.00 | 56 | 1015.4 |
| 20260507170003 | 62 | 254 | 0.0 | 4.0 | 0.00 | 0.00 | 0.00 | 56 | 1015.5 |
| 20260507165543 | 62 | 309 | 0.0 | 4.0 | 0.00 | 0.00 | 0.00 | 57 | 1015.6 |
| 20260507165019 | 61 | 269 | 1.0 | 5.0 | 0.00 | 0.00 | 0.00 | 57 | 1015.6 |
| 20260507164602 | 61 | 284 | 2.0 | 5.0 | 0.00 | 0.00 | 0.00 | 55 | 1015.7 |
| 20260507164036 | 61 | 282 | 0.0 | 3.0 | 0.00 | 0.00 | 0.00 | 58 | 1015.8 |
| 20260507163516 | 61 | 218 | 0.0 | 2.0 | 0.00 | 0.00 | 0.00 | 58 | 1015.8 |
| 20260507163054 | 61 | 259 | 0.0 | 4.0 | 0.00 | 0.00 | 0.00 | 57 | 1015.8 |
| 20260507162535 | 61 | 271 | 0.0 | 4.0 | 0.00 | 0.00 | 0.00 | 56 | 1015.9 |
| 20260507162008 | 61 | 169 | 0.0 | 4.0 | 0.00 | 0.00 | 0.00 | 58 | 1015.9 |
| 20260507161552 | 61 | 311 | 0.0 | 4.0 | 0.00 | 0.00 | 0.00 | 59 | 1015.8 |
| 20260507161025 | 61 | 276 | 0.0 | 2.0 | 0.00 | 0.00 | 0.00 | 59 | 1015.9 |
| 20260507160502 | 61 | 318 | 0.0 | 4.0 | 0.00 | 0.00 | 0.00 | 58 | 1016.0 |
| 20260507160049 | 61 | 323 | 0.0 | 4.0 | 0.00 | 0.00 | 0.00 | 58 | 1016.0 |
| 20260507155518 | 61 | 281 | 0.0 | 4.0 | 0.00 | 0.00 | 0.00 | 58 | 1016.0 |
| 20260507155059 | 61 | 269 | 0.0 | 4.0 | 0.00 | 0.00 | 0.00 | 57 | 1016.2 |
| 20260507154537 | 60 | 271 | 0.0 | 3.0 | 0.00 | 0.00 | 0.00 | 59 | 1016.2 |
| 20260507154012 | 60 | 250 | 0.0 | 3.0 | 0.00 | 0.00 | 0.00 | 59 | 1016.2 |
| 20260507153552 | 60 | 136 | 0.0 | 3.0 | 0.00 | 0.00 | 0.00 | 60 | 1016.1 |
| 20260507153028 | 59 | 212 | 0.0 | 3.0 | 0.00 | 0.00 | 0.00 | 59 | 1016.2 |
| 20260507152504 | 59 | 275 | 0.0 | 3.0 | 0.00 | 0.00 | 0.00 | 60 | 1016.3 |
| 20260507152045 | 59 | 296 | 1.0 | 3.0 | 0.00 | 0.00 | 0.00 | 63 | 1016.4 |
| 20260507151520 | 59 | 306 | 0.0 | 3.0 | 0.00 | 0.00 | 0.00 | 61 | 1016.4 |
| 20260507151101 | 59 | 275 | 1.0 | 3.0 | 0.00 | 0.00 | 0.00 | 60 | 1016.5 |
| 20260507150537 | 59 | 178 | 0.0 | 3.0 | 0.00 | 0.00 | 0.00 | 61 | 1016.5 |
| 20260507150023 | 59 | 278 | 0.0 | 3.0 | 0.00 | 0.00 | 0.00 | 61 | 1016.5 |
| 20260507145556 | 59 | 290 | 0.0 | 4.0 | 0.00 | 0.00 | 0.00 | 62 | 1016.5 |
| 20260507145030 | 59 | 169 | 1.0 | 4.0 | 0.00 | 0.00 | 0.00 | 64 | 1016.5 |
| 20260507144506 | 58 | 119 | 0.0 | 3.0 | 0.00 | 0.00 | 0.00 | 68 | 1016.6 |
| 20260507144047 | 58 | 155 | 0.0 | 3.0 | 0.00 | 0.00 | 0.00 | 68 | 1016.6 |
| 20260507143524 | 58 | 157 | 0.0 | 3.0 | 0.00 | 0.00 | 0.00 | 66 | 1016.6 |
| 20260507143105 | 57 | 238 | 1.0 | 6.0 | 0.00 | 0.00 | 0.00 | 67 | 1016.5 |
| 20260507142540 | 57 | 304 | 0.0 | 6.0 | 0.00 | 0.00 | 0.00 | 67 | 1016.5 |
| 20260507142025 | 57 | 286 | 0.0 | 2.0 | 0.00 | 0.00 | 0.00 | 67 | 1016.6 |
| 20260507141602 | 56 | 286 | 0.0 | 3.0 | 0.00 | 0.00 | 0.00 | 68 | 1016.6 |
| 20260507141032 | 56 | 162 | 0.0 | 3.0 | 0.00 | 0.00 | 0.00 | 69 | 1016.7 |
| 20260507140508 | 56 | 150 | 0.0 | 1.0 | 0.00 | 0.00 | 0.00 | 68 | 1016.6 |
| 20260507140050 | 55 | 266 | 0.0 | 3.0 | 0.00 | 0.00 | 0.00 | 69 | 1016.6 |
| 20260507135525 | 55 | 171 | 0.0 | 3.0 | 0.00 | 0.00 | 0.00 | 70 | 1016.6 |
| 20260507135002 | 55 | 153 | 0.0 | 1.0 | 0.00 | 0.00 | 0.00 | 70 | 1016.7 |
| 20260507134544 | 54 | 275 | 0.0 | 0.0 | 0.00 | 0.00 | 0.00 | 70 | 1016.7 |
| 20260507134018 | 54 | 275 | 0.0 | 1.0 | 0.00 | 0.00 | 0.00 | 70 | 1016.7 |
| 20260507133559 | 54 | 275 | 0.0 | 1.0 | 0.00 | 0.00 | 0.00 | 70 | 1016.6 |
| 20260507133105 | 53 | 275 | 0.0 | 1.0 | 0.00 | 0.00 | 0.00 | 71 | 1016.7 |
| 20260507132516 | 53 | 275 | 0.0 | 1.0 | 0.00 | 0.00 | 0.00 | 71 | 1016.7 |
| 20260507132051 | 52 | 275 | 0.0 | 1.0 | 0.00 | 0.00 | 0.00 | 72 | 1016.8 |
| 20260507131529 | 52 | 275 | 0.0 | 1.0 | 0.00 | 0.00 | 0.00 | 71 | 1016.9 |
| 20260507131004 | 51 | 15 | 0.0 | 1.0 | 0.00 | 0.00 | 0.00 | 71 | 1017.0 |
| 20260507130546 | 51 | 15 | 0.0 | 0.0 | 0.00 | 0.00 | 0.00 | 72 | 1017.0 |
| 20260507130021 | 50 | 14 | 0.0 | 1.0 | 0.00 | 0.00 | 0.00 | 72 | 1017.1 |
| 20260507125601 | 50 | 15 | 0.0 | 1.0 | 0.00 | 0.00 | 0.00 | 72 | 1017.1 |
| 20260507125038 | 49 | 14 | 0.0 | 1.0 | 0.00 | 0.00 | 0.00 | 73 | 1017.1 |
| 20260507124514 | 49 | 14 | 0.0 | 1.0 | 0.00 | 0.00 | 0.00 | 73 | 1017.1 |
| 20260507124057 | 48 | 15 | 0.0 | 0.0 | 0.00 | 0.00 | 0.00 | 73 | 1017.0 |
| 20260507123536 | 48 | 14 | 0.0 | 0.0 | 0.00 | 0.00 | 0.00 | 74 | 1017.0 |
| 20260507123007 | 47 | 15 | 0.0 | 0.0 | 0.00 | 0.00 | 0.00 | 74 | 1017.0 |
| 20260507122549 | 47 | 14 | 0.0 | 0.0 | 0.00 | 0.00 | 0.00 | 74 | 1017.1 |
| 20260507122024 | 46 | 14 | 0.0 | 0.0 | 0.00 | 0.00 | 0.00 | 75 | 1017.1 |
| 20260507121605 | 46 | 14 | 0.0 | 0.0 | 0.00 | 0.00 | 0.00 | 76 | 1017.1 |
| 20260507121040 | 45 | 15 | 0.0 | 0.0 | 0.00 | 0.00 | 0.00 | 76 | 1017.0 |
| 20260507120516 | 45 | 14 | 0.0 | 0.0 | 0.00 | 0.00 | 0.00 | 77 | 1017.0 |
| 20260507115534 | 44 | 14 | 0.0 | 0.0 | 0.00 | 0.00 | 0.00 | 77 | 1016.9 |
| 20260507115010 | 44 | 14 | 0.0 | 0.0 | 0.00 | 0.00 | 0.00 | 77 | 1016.9 |
| 20260507114600 | 44 | 14 | 0.0 | 0.0 | 0.00 | 0.00 | 0.00 | 77 | 1016.9 |
| 20260507114026 | 44 | 14 | 0.0 | 0.0 | 0.00 | 0.00 | 0.00 | 77 | 1016.8 |
| 20260507113501 | 44 | 14 | 0.0 | 0.0 | 0.00 | 0.00 | 0.00 | 77 | 1016.7 |
| 20260507113043 | 44 | 14 | 0.0 | 0.0 | 0.00 | 0.00 | 0.00 | 77 | 1016.7 |
| 20260507112521 | 43 | 14 | 0.0 | 0.0 | 0.00 | 0.00 | 0.00 | 77 | 1016.7 |
| 20260507112102 | 43 | 14 | 0.0 | 0.0 | 0.00 | 0.00 | 0.00 | 77 | 1016.7 |
| 20260507111537 | 43 | 14 | 0.0 | 0.0 | 0.00 | 0.00 | 0.00 | 77 | 1016.7 |
| 20260507111012 | 43 | 14 | 0.0 | 0.0 | 0.00 | 0.00 | 0.00 | 77 | 1016.7 |
| 20260507110558 | 43 | 14 | 0.0 | 0.0 | 0.00 | 0.00 | 0.00 | 76 | 1016.7 |
| 20260507110038 | 44 | 15 | 0.0 | 0.0 | 0.00 | 0.00 | 0.00 | 76 | 1016.7 |
| 20260507105509 | 44 | 14 | 0.0 | 0.0 | 0.00 | 0.00 | 0.00 | 76 | 1016.7 |
| 20260507105049 | 44 | 14 | 0.0 | 0.0 | 0.00 | 0.00 | 0.00 | 76 | 1016.7 |
| 20260507104523 | 44 | 14 | 0.0 | 0.0 | 0.00 | 0.00 | 0.00 | 76 | 1016.7 |
| 20260507104103 | 44 | 14 | 0.0 | 0.0 | 0.00 | 0.00 | 0.00 | 75 | 1016.7 |
| 20260507103539 | 44 | 14 | 0.0 | 0.0 | 0.00 | 0.00 | 0.00 | 75 | 1016.7 |
| 20260507103012 | 44 | 15 | 0.0 | 0.0 | 0.00 | 0.00 | 0.00 | 75 | 1016.7 |
| 20260507102552 | 44 | 14 | 0.0 | 0.0 | 0.00 | 0.00 | 0.00 | 74 | 1016.7 |
| 20260507102028 | 44 | 15 | 0.0 | 0.0 | 0.00 | 0.00 | 0.00 | 74 | 1016.7 |
| 20260507101504 | 44 | 14 | 0.0 | 0.0 | 0.00 | 0.00 | 0.00 | 74 | 1016.7 |
| 20260507101044 | 44 | 14 | 0.0 | 0.0 | 0.00 | 0.00 | 0.00 | 74 | 1016.8 |
| 20260507100521 | 44 | 15 | 0.0 | 0.0 | 0.00 | 0.00 | 0.00 | 74 | 1016.8 |
| 20260507095547 | 44 | 14 | 0.0 | 0.0 | 0.00 | 0.00 | 0.00 | 74 | 1016.8 |
| 20260507095023 | 44 | 14 | 0.0 | 0.0 | 0.00 | 0.00 | 0.00 | 74 | 1016.9 |
| 20260507094603 | 44 | 14 | 0.0 | 0.0 | 0.00 | 0.00 | 0.00 | 74 | 1016.9 |
| 20260507094038 | 44 | 14 | 0.0 | 0.0 | 0.00 | 0.00 | 0.00 | 74 | 1016.9 |
| 20260507093515 | 44 | 14 | 0.0 | 0.0 | 0.00 | 0.00 | 0.00 | 74 | 1017.0 |
| 20260507093052 | 44 | 14 | 0.0 | 0.0 | 0.00 | 0.00 | 0.00 | 74 | 1017.0 |
| 20260507092528 | 44 | 14 | 0.0 | 0.0 | 0.00 | 0.00 | 0.00 | 74 | 1017.0 |
| 20260507092005 | 44 | 14 | 0.0 | 0.0 | 0.00 | 0.00 | 0.00 | 74 | 1017.0 |
| 20260507091545 | 44 | 14 | 0.0 | 0.0 | 0.00 | 0.00 | 0.00 | 74 | 1017.0 |
| 20260507091022 | 44 | 14 | 0.0 | 0.0 | 0.00 | 0.00 | 0.00 | 74 | 1017.0 |
| 20260507090603 | 44 | 14 | 0.0 | 0.0 | 0.00 | 0.00 | 0.00 | 74 | 1017.0 |
| 20260507090042 | 44 | 14 | 0.0 | 0.0 | 0.00 | 0.00 | 0.00 | 74 | 1017.0 |
| 20260507085515 | 44 | 14 | 0.0 | 0.0 | 0.00 | 0.00 | 0.00 | 74 | 1017.0 |
| 20260507085058 | 44 | 14 | 0.0 | 0.0 | 0.00 | 0.00 | 0.00 | 74 | 1017.0 |
| 20260507084538 | 44 | 14 | 0.0 | 0.0 | 0.00 | 0.00 | 0.00 | 73 | 1017.0 |
| 20260507084009 | 44 | 14 | 0.0 | 0.0 | 0.00 | 0.00 | 0.00 | 73 | 1017.0 |
| 20260507083551 | 45 | 15 | 0.0 | 0.0 | 0.00 | 0.00 | 0.00 | 73 | 1016.9 |
| 20260507083026 | 45 | 14 | 0.0 | 0.0 | 0.00 | 0.00 | 0.00 | 73 | 1017.0 |
| 20260507082502 | 45 | 14 | 0.0 | 0.0 | 0.00 | 0.00 | 0.00 | 73 | 1017.0 |
| 20260507082046 | 45 | 14 | 0.0 | 0.0 | 0.00 | 0.00 | 0.00 | 73 | 1017.0 |
| 20260507081520 | 45 | 15 | 0.0 | 0.0 | 0.00 | 0.00 | 0.00 | 72 | 1017.0 |
| 20260507081104 | 45 | 14 | 0.0 | 0.0 | 0.00 | 0.00 | 0.00 | 72 | 1016.9 |
| 20260507080538 | 45 | 14 | 0.0 | 0.0 | 0.00 | 0.00 | 0.00 | 72 | 1017.0 |
| 20260507080014 | 45 | 14 | 0.0 | 0.0 | 0.00 | 0.00 | 0.00 | 71 | 1016.9 |
| 20260507075555 | 46 | 14 | 0.0 | 0.0 | 0.00 | 0.00 | 0.00 | 71 | 1017.0 |
| 20260507075030 | 46 | 14 | 0.0 | 0.0 | 0.00 | 0.00 | 0.00 | 71 | 1016.9 |
| 20260507074507 | 46 | 15 | 0.0 | 0.0 | 0.00 | 0.00 | 0.00 | 70 | 1017.0 |
| 20260507074047 | 46 | 14 | 0.0 | 0.0 | 0.00 | 0.00 | 0.00 | 70 | 1017.0 |
| 20260507073525 | 46 | 14 | 0.0 | 0.0 | 0.00 | 0.00 | 0.00 | 70 | 1017.1 |
| 20260507073110 | 46 | 14 | 0.0 | 0.0 | 0.00 | 0.00 | 0.00 | 70 | 1017.2 |
| 20260507072540 | 46 | 14 | 0.0 | 0.0 | 0.00 | 0.00 | 0.00 | 70 | 1017.3 |
| 20260507072016 | 46 | 14 | 0.0 | 0.0 | 0.00 | 0.00 | 0.00 | 69 | 1017.3 |
| 20260507071556 | 46 | 14 | 0.0 | 0.0 | 0.00 | 0.00 | 0.00 | 70 | 1017.3 |
| 20260507071032 | 46 | 14 | 0.0 | 0.0 | 0.00 | 0.01 | 0.00 | 69 | 1017.4 |
| 20260507070508 | 46 | 14 | 0.0 | 0.0 | 0.00 | 0.01 | 0.00 | 70 | 1017.4 |
| 20260507070057 | 46 | 14 | 0.0 | 0.0 | 0.00 | 0.01 | 0.00 | 71 | 1017.4 |
| 20260507065524 | 46 | 14 | 0.0 | 0.0 | 0.00 | 0.01 | 0.00 | 71 | 1017.5 |
| 20260507065105 | 46 | 14 | 0.0 | 0.0 | 0.00 | 0.01 | 0.00 | 71 | 1017.5 |
| 20260507064547 | 46 | 14 | 0.0 | 0.0 | 0.00 | 0.01 | 0.00 | 72 | 1017.6 |
| 20260507064017 | 46 | 14 | 0.0 | 0.0 | 0.00 | 0.01 | 0.00 | 73 | 1017.6 |
| 20260507063558 | 46 | 14 | 0.0 | 0.0 | 0.00 | 0.01 | 0.00 | 73 | 1017.6 |
| 20260507063036 | 46 | 14 | 0.0 | 0.0 | 0.00 | 0.01 | 0.00 | 74 | 1017.7 |
| 20260507062509 | 46 | 14 | 0.0 | 0.0 | 0.00 | 0.01 | 0.00 | 75 | 1017.7 |
| 20260507062050 | 46 | 14 | 0.0 | 0.0 | 0.00 | 0.01 | 0.00 | 75 | 1017.6 |
| 20260507061526 | 46 | 14 | 0.0 | 0.0 | 0.00 | 0.01 | 0.00 | 75 | 1017.7 |
| 20260507061003 | 45 | 14 | 0.0 | 0.0 | 0.00 | 0.01 | 0.00 | 76 | 1017.7 |
| 20260507060542 | 45 | 15 | 0.0 | 0.0 | 0.00 | 0.01 | 0.00 | 76 | 1017.7 |
| 20260507060019 | 45 | 14 | 0.0 | 0.0 | 0.00 | 0.01 | 0.00 | 76 | 1017.8 |
| 20260507055556 | 45 | 14 | 0.0 | 0.0 | 0.00 | 0.01 | 0.00 | 76 | 1017.8 |
| 20260507055032 | 45 | 14 | 0.0 | 0.0 | 0.00 | 0.01 | 0.00 | 76 | 1017.8 |
| 20260507054508 | 45 | 14 | 0.0 | 0.0 | 0.00 | 0.01 | 0.00 | 76 | 1017.7 |
| 20260507054045 | 45 | 14 | 0.0 | 0.0 | 0.00 | 0.01 | 0.00 | 76 | 1017.8 |
| 20260507053522 | 45 | 15 | 0.0 | 0.0 | 0.00 | 0.01 | 0.00 | 76 | 1017.8 |
| 20260507053126 | 45 | 14 | 0.0 | 0.0 | 0.00 | 0.01 | 0.00 | 76 | 1017.8 |
| 20260507052540 | 46 | 14 | 0.0 | 0.0 | 0.00 | 0.01 | 0.00 | 76 | 1017.7 |
| 20260507052013 | 46 | 14 | 0.0 | 0.0 | 0.00 | 0.01 | 0.00 | 76 | 1017.8 |
| 20260507051554 | 46 | 15 | 0.0 | 0.0 | 0.00 | 0.01 | 0.00 | 76 | 1017.8 |
| 20260507051029 | 46 | 14 | 0.0 | 0.0 | 0.00 | 0.01 | 0.01 | 76 | 1017.8 |
| 20260507050505 | 46 | 14 | 0.0 | 0.0 | 0.00 | 0.01 | 0.01 | 76 | 1017.8 |
| 20260507050046 | 46 | 14 | 0.0 | 0.0 | 0.00 | 0.01 | 0.01 | 76 | 1017.8 |
| 20260507045523 | 46 | 14 | 0.0 | 0.0 | 0.00 | 0.01 | 0.01 | 76 | 1017.8 |
| 20260507045103 | 46 | 15 | 0.0 | 0.0 | 0.00 | 0.01 | 0.01 | 76 | 1017.8 |
| 20260507044555 | 46 | 14 | 0.0 | 0.0 | 0.00 | 0.01 | 0.01 | 75 | 1017.7 |
| 20260507044015 | 46 | 14 | 0.0 | 0.0 | 0.00 | 0.01 | 0.01 | 75 | 1017.7 |
| 20260507043555 | 46 | 14 | 0.0 | 0.0 | 0.00 | 0.01 | 0.01 | 75 | 1017.7 |
| 20260507043032 | 46 | 14 | 0.0 | 0.0 | 0.00 | 0.01 | 0.01 | 75 | 1017.8 |
| 20260507042508 | 46 | 14 | 0.0 | 0.0 | 0.00 | 0.01 | 0.01 | 75 | 1017.7 |
| 20260507042049 | 46 | 14 | 0.0 | 0.0 | 0.00 | 0.01 | 0.01 | 75 | 1017.9 |
| 20260507041526 | 46 | 14 | 0.0 | 0.0 | 0.00 | 0.01 | 0.01 | 75 | 1017.9 |
| 20260507041001 | 46 | 14 | 0.0 | 0.0 | 0.00 | 0.01 | 0.01 | 75 | 1018.1 |
| 20260507040542 | 47 | 15 | 0.0 | 0.0 | 0.00 | 0.01 | 0.01 | 75 | 1018.2 |
| 20260507040018 | 47 | 14 | 0.0 | 0.0 | 0.00 | 0.01 | 0.01 | 74 | 1018.1 |
| 20260507035559 | 47 | 15 | 0.0 | 0.0 | 0.00 | 0.01 | 0.01 | 74 | 1018.1 |
| 20260507035035 | 47 | 14 | 0.0 | 0.0 | 0.00 | 0.01 | 0.01 | 74 | 1018.0 |
| 20260507034510 | 47 | 14 | 0.0 | 0.0 | 0.00 | 0.01 | 0.01 | 73 | 1017.9 |
| 20260507034052 | 47 | 15 | 0.0 | 0.0 | 0.00 | 0.01 | 0.01 | 72 | 1017.9 |
| 20260507033529 | 47 | 14 | 0.0 | 0.0 | 0.00 | 0.01 | 0.01 | 71 | 1017.9 |
| 20260507033004 | 47 | 15 | 0.0 | 0.0 | 0.00 | 0.01 | 0.01 | 71 | 1017.9 |
| 20260507032545 | 48 | 14 | 0.0 | 0.0 | 0.00 | 0.01 | 0.01 | 70 | 1017.9 |
| 20260507032024 | 48 | 14 | 0.0 | 0.0 | 0.00 | 0.01 | 0.01 | 70 | 1017.9 |
| 20260507031604 | 48 | 14 | 0.0 | 0.0 | 0.00 | 0.01 | 0.01 | 68 | 1017.9 |
| 20260507031039 | 48 | 14 | 0.0 | 0.0 | 0.00 | 0.01 | 0.01 | 67 | 1017.9 |
| 20260507030513 | 48 | 15 | 0.0 | 0.0 | 0.00 | 0.01 | 0.01 | 66 | 1017.9 |
| 20260507030107 | 48 | 14 | 0.0 | 0.0 | 0.00 | 0.01 | 0.01 | 65 | 1017.9 |
| 20260507025530 | 48 | 15 | 0.0 | 0.0 | 0.00 | 0.01 | 0.01 | 64 | 1017.8 |
| 20260507025005 | 48 | 15 | 0.0 | 0.0 | 0.00 | 0.01 | 0.01 | 62 | 1017.9 |
| 20260507024605 | 49 | 14 | 0.0 | 0.0 | 0.00 | 0.01 | 0.01 | 62 | 1017.8 |
| 20260507024022 | 49 | 14 | 0.0 | 0.0 | 0.00 | 0.01 | 0.01 | 61 | 1017.8 |
| 20260507023605 | 49 | 14 | 0.0 | 0.0 | 0.00 | 0.01 | 0.01 | 60 | 1017.7 |
| 20260507023039 | 49 | 14 | 0.0 | 0.0 | 0.00 | 0.01 | 0.01 | 59 | 1017.7 |
| 20260507022515 | 50 | 15 | 0.0 | 0.0 | 0.00 | 0.01 | 0.01 | 59 | 1017.7 |
| 20260507022056 | 50 | 14 | 0.0 | 0.0 | 0.00 | 0.01 | 0.01 | 58 | 1017.6 |
| 20260507021536 | 50 | 14 | 0.0 | 0.0 | 0.00 | 0.01 | 0.01 | 57 | 1017.6 |
| 20260507021009 | 50 | 15 | 0.0 | 0.0 | 0.00 | 0.01 | 0.01 | 56 | 1017.6 |
| 20260507020550 | 51 | 15 | 0.0 | 0.0 | 0.00 | 0.01 | 0.01 | 57 | 1017.6 |
| 20260507020026 | 51 | 15 | 0.0 | 0.0 | 0.00 | 0.01 | 0.01 | 56 | 1017.6 |
| 20260507015605 | 51 | 15 | 0.0 | 0.0 | 0.00 | 0.01 | 0.01 | 55 | 1017.5 |
| 20260507015046 | 52 | 14 | 0.0 | 0.0 | 0.00 | 0.01 | 0.01 | 54 | 1017.5 |
| 20260507014521 | 52 | 14 | 0.0 | 0.0 | 0.00 | 0.01 | 0.01 | 52 | 1017.4 |
| 20260507014100 | 53 | 14 | 0.0 | 0.0 | 0.00 | 0.01 | 0.01 | 52 | 1017.4 |
| 20260507013539 | 53 | 14 | 0.0 | 0.0 | 0.00 | 0.01 | 0.01 | 52 | 1017.3 |
| 20260507013011 | 53 | 14 | 0.0 | 0.0 | 0.00 | 0.01 | 0.01 | 50 | 1017.2 |
| 20260507012551 | 54 | 14 | 0.0 | 0.0 | 0.00 | 0.01 | 0.01 | 48 | 1017.2 |
| 20260507012028 | 54 | 14 | 0.0 | 0.0 | 0.00 | 0.01 | 0.01 | 48 | 1017.2 |
| 20260507011513 | 55 | 15 | 0.0 | 0.0 | 0.00 | 0.01 | 0.01 | 48 | 1017.1 |
| 20260507011045 | 55 | 14 | 0.0 | 0.0 | 0.00 | 0.01 | 0.01 | 47 | 1017.0 |
| 20260507010521 | 56 | 14 | 0.0 | 0.0 | 0.00 | 0.01 | 0.01 | 47 | 1017.1 |
| 20260507005537 | 56 | 14 | 0.0 | 3.0 | 0.00 | 0.01 | 0.01 | 43 | 1017.0 |
| 20260507005019 | 56 | 38 | 0.0 | 2.0 | 0.00 | 0.01 | 0.01 | 42 | 1017.0 |
| 20260507004555 | 56 | 359 | 0.0 | 4.0 | 0.00 | 0.01 | 0.01 | 42 | 1017.0 |
| 20260507004031 | 56 | 359 | 0.0 | 4.0 | 0.00 | 0.01 | 0.01 | 41 | 1017.0 |
| 20260507003507 | 57 | 51 | 0.0 | 3.0 | 0.00 | 0.01 | 0.01 | 42 | 1016.9 |
| 20260507003048 | 57 | 57 | 0.0 | 3.0 | 0.00 | 0.01 | 0.01 | 41 | 1016.9 |
| 20260507002525 | 57 | 336 | 0.0 | 5.0 | 0.00 | 0.01 | 0.01 | 40 | 1016.9 |
| 20260507002001 | 57 | 349 | 2.0 | 7.0 | 0.00 | 0.01 | 0.01 | 41 | 1016.8 |
| 20260507001541 | 57 | 17 | 2.0 | 7.0 | 0.00 | 0.01 | 0.01 | 41 | 1016.9 |
| 20260507001017 | 57 | 30 | 2.0 | 6.0 | 0.00 | 0.01 | 0.01 | 41 | 1016.9 |
| 20260507000601 | 57 | 33 | 2.0 | 4.0 | 0.00 | 0.01 | 0.01 | 41 | 1017.0 |
| 20260507000035 | 57 | 313 | 0.0 | 3.0 | 0.00 | 0.01 | 0.01 | 41 | 1016.9 |
| 20260506235513 | 58 | 326 | 0.0 | 2.0 | 0.00 | 0.01 | 0.01 | 42 | 1017.1 |
| 20260506235051 | 58 | 326 | 0.0 | 5.0 | 0.00 | 0.01 | 0.01 | 43 | 1017.1 |
| 20260506234527 | 58 | 37 | 1.0 | 6.0 | 0.00 | 0.01 | 0.01 | 42 | 1017.0 |
| 20260506234003 | 58 | 293 | 0.0 | 3.0 | 0.00 | 0.01 | 0.01 | 41 | 1017.0 |
| 20260506233544 | 58 | 342 | 0.0 | 7.0 | 0.00 | 0.01 | 0.01 | 41 | 1017.0 |
| 20260506233020 | 58 | 37 | 1.0 | 7.0 | 0.00 | 0.01 | 0.01 | 41 | 1016.8 |
| 20260506232601 | 58 | 357 | 0.0 | 6.0 | 0.00 | 0.01 | 0.01 | 42 | 1016.8 |
| 20260506232037 | 58 | 356 | 3.0 | 8.0 | 0.00 | 0.01 | 0.01 | 41 | 1016.8 |
| 20260506231514 | 58 | 34 | 0.0 | 8.0 | 0.00 | 0.01 | 0.01 | 43 | 1016.9 |
| 20260506231056 | 58 | 344 | 2.0 | 9.0 | 0.00 | 0.01 | 0.01 | 41 | 1016.8 |
| 20260506230533 | 58 | 321 | 2.0 | 9.0 | 0.00 | 0.01 | 0.01 | 41 | 1016.8 |
| 20260506230008 | 58 | 44 | 0.0 | 7.0 | 0.00 | 0.01 | 0.01 | 40 | 1016.9 |
| 20260506225548 | 58 | 12 | 1.0 | 6.0 | 0.00 | 0.01 | 0.01 | 41 | 1016.8 |
| 20260506225027 | 58 | 338 | 0.0 | 5.0 | 0.00 | 0.01 | 0.01 | 42 | 1016.9 |
| 20260506224610 | 58 | 3 | 1.0 | 5.0 | 0.00 | 0.01 | 0.01 | 42 | 1016.9 |
| 20260506224041 | 58 | 7 | 0.0 | 7.0 | 0.00 | 0.01 | 0.01 | 43 | 1016.9 |
| 20260506223518 | 58 | 360 | 2.0 | 7.0 | 0.00 | 0.01 | 0.01 | 41 | 1016.9 |
| 20260506223100 | 58 | 345 | 1.0 | 6.0 | 0.00 | 0.01 | 0.01 | 42 | 1016.9 |
| 20260506222535 | 58 | 354 | 2.0 | 9.0 | 0.00 | 0.01 | 0.01 | 42 | 1017.0 |
| 20260506222013 | 59 | 34 | 3.0 | 9.0 | 0.00 | 0.01 | 0.01 | 42 | 1017.0 |
| 20260506221554 | 59 | 319 | 0.0 | 3.0 | 0.00 | 0.01 | 0.01 | 43 | 1017.0 |
| 20260506221029 | 59 | 319 | 0.0 | 3.0 | 0.00 | 0.01 | 0.01 | 41 | 1017.2 |
| 20260506220507 | 59 | 321 | 1.0 | 8.0 | 0.00 | 0.01 | 0.01 | 40 | 1017.1 |
| 20260506220051 | 59 | 13 | 2.0 | 8.0 | 0.00 | 0.01 | 0.01 | 45 | 1017.2 |
| 20260506215521 | 59 | 36 | 0.0 | 3.0 | 0.00 | 0.01 | 0.01 | 44 | 1017.2 |
| 20260506215101 | 59 | 36 | 0.0 | 10.0 | 0.00 | 0.01 | 0.01 | 43 | 1017.2 |
| 20260506214537 | 58 | 293 | 1.0 | 10.0 | 0.00 | 0.01 | 0.01 | 42 | 1017.3 |
| 20260506214018 | 58 | 47 | 0.0 | 7.0 | 0.00 | 0.01 | 0.01 | 42 | 1017.3 |
| 20260506213554 | 58 | 37 | 1.0 | 4.0 | 0.00 | 0.01 | 0.01 | 45 | 1017.3 |
| 20260506213032 | 58 | 30 | 1.0 | 6.0 | 0.00 | 0.01 | 0.01 | 43 | 1017.2 |
| 20260506212506 | 58 | 342 | 0.0 | 4.0 | 0.00 | 0.01 | 0.01 | 45 | 1017.3 |
| 20260506212047 | 58 | 348 | 0.0 | 9.0 | 0.00 | 0.01 | 0.01 | 43 | 1017.5 |
| 20260506211525 | 58 | 310 | 2.0 | 9.0 | 0.00 | 0.01 | 0.01 | 44 | 1017.6 |
| 20260506211104 | 58 | 10 | 2.0 | 6.0 | 0.00 | 0.01 | 0.01 | 44 | 1017.7 |
| 20260506210540 | 58 | 37 | 2.0 | 5.0 | 0.00 | 0.01 | 0.01 | 44 | 1017.7 |
| 20260506210012 | 58 | 321 | 1.0 | 6.0 | 0.00 | 0.01 | 0.01 | 43 | 1017.8 |
| 20260506205546 | 57 | 329 | 2.0 | 6.0 | 0.00 | 0.01 | 0.01 | 44 | 1017.8 |
| 20260506205022 | 57 | 18 | 0.0 | 4.0 | 0.00 | 0.01 | 0.01 | 44 | 1017.9 |
| 20260506204604 | 57 | 333 | 1.0 | 10.0 | 0.00 | 0.01 | 0.01 | 42 | 1018.0 |
| 20260506204040 | 57 | 319 | 3.0 | 10.0 | 0.00 | 0.01 | 0.01 | 45 | 1018.1 |
| 20260506203515 | 57 | 340 | 0.0 | 9.0 | 0.00 | 0.01 | 0.01 | 43 | 1018.1 |
| 20260506203057 | 57 | 20 | 2.0 | 10.0 | 0.00 | 0.01 | 0.01 | 45 | 1018.1 |
| 20260506202532 | 57 | 18 | 4.0 | 10.0 | 0.00 | 0.01 | 0.01 | 47 | 1018.2 |
| 20260506202008 | 57 | 39 | 2.0 | 7.0 | 0.00 | 0.01 | 0.01 | 45 | 1018.2 |
| 20260506201550 | 57 | 320 | 0.0 | 5.0 | 0.00 | 0.01 | 0.01 | 47 | 1018.3 |
| 20260506201025 | 57 | 326 | 1.0 | 6.0 | 0.00 | 0.02 | 0.01 | 44 | 1018.3 |
| 20260506200502 | 57 | 35 | 3.0 | 6.0 | 0.00 | 0.02 | 0.01 | 45 | 1018.4 |
| 20260506200042 | 57 | 319 | 1.0 | 4.0 | 0.00 | 0.02 | 0.01 | 44 | 1018.4 |
| 20260506195520 | 57 | 328 | 1.0 | 4.0 | 0.00 | 0.02 | 0.01 | 44 | 1018.4 |
| 20260506195058 | 56 | 344 | 2.0 | 9.0 | 0.00 | 0.02 | 0.01 | 45 | 1018.4 |
| 20260506194535 | 56 | 329 | 3.0 | 9.0 | 0.00 | 0.02 | 0.01 | 45 | 1018.5 |
| 20260506194013 | 56 | 340 | 3.0 | 9.0 | 0.00 | 0.02 | 0.01 | 45 | 1018.5 |
| 20260506193555 | 56 | 58 | 2.0 | 9.0 | 0.00 | 0.02 | 0.01 | 47 | 1018.5 |
| 20260506193028 | 56 | 303 | 0.0 | 7.0 | 0.00 | 0.02 | 0.01 | 48 | 1018.6 |
| 20260506192503 | 56 | 352 | 1.0 | 9.0 | 0.00 | 0.02 | 0.01 | 46 | 1018.6 |
| 20260506192044 | 56 | 17 | 2.0 | 9.0 | 0.00 | 0.02 | 0.01 | 50 | 1018.7 |
| 20260506191522 | 56 | 14 | 3.0 | 9.0 | 0.00 | 0.02 | 0.01 | 50 | 1018.7 |
| 20260506191101 | 56 | 121 | 0.0 | 8.0 | 0.00 | 0.02 | 0.01 | 48 | 1018.6 |
| 20260506190539 | 56 | 26 | 2.0 | 8.0 | 0.00 | 0.02 | 0.01 | 51 | 1018.7 |
| 20260506190015 | 56 | 25 | 0.0 | 4.0 | 0.00 | 0.02 | 0.01 | 48 | 1018.8 |
| 20260506185555 | 56 | 288 | 1.0 | 5.0 | 0.00 | 0.02 | 0.01 | 47 | 1018.7 |
| 20260506185030 | 56 | 345 | 1.0 | 5.0 | 0.00 | 0.02 | 0.01 | 52 | 1018.8 |
| 20260506184508 | 55 | 337 | 2.0 | 5.0 | 0.00 | 0.02 | 0.01 | 52 | 1019.0 |
| 20260506184047 | 55 | 316 | 0.0 | 3.0 | 0.00 | 0.02 | 0.01 | 50 | 1018.9 |
| 20260506183524 | 55 | 37 | 0.0 | 5.0 | 0.00 | 0.02 | 0.01 | 52 | 1018.9 |
| 20260506183105 | 55 | 327 | 0.0 | 5.0 | 0.00 | 0.02 | 0.01 | 50 | 1018.9 |
| 20260506182539 | 55 | 38 | 2.0 | 5.0 | 0.00 | 0.02 | 0.01 | 51 | 1018.9 |
| 20260506182015 | 55 | 359 | 2.0 | 5.0 | 0.00 | 0.02 | 0.01 | 54 | 1019.0 |
| 20260506181558 | 55 | 353 | 0.0 | 5.0 | 0.00 | 0.02 | 0.01 | 53 | 1019.2 |
| 20260506181032 | 55 | 360 | 1.0 | 4.0 | 0.00 | 0.03 | 0.01 | 51 | 1019.2 |
| 20260506180509 | 55 | 339 | 1.0 | 4.0 | 0.00 | 0.03 | 0.01 | 52 | 1019.2 |
| 20260506180049 | 54 | 27 | 0.0 | 3.0 | 0.00 | 0.03 | 0.01 | 54 | 1019.3 |
| 20260506175524 | 54 | 293 | 0.0 | 3.0 | 0.00 | 0.03 | 0.01 | 52 | 1019.2 |